Theta_e
317 315 314 313 311 308 306 304 302 305 312 312 312 311 310 309 309 310 313 322 323 321 320 321 320 319 319 318 317 317 317 316 315 315 314 314 314 314 313 313 313 313 313
317 315 312 310 308 306 303 302 303 305 312 311 309 309 307 307 307 308 309 313 321 321 319 320 319 319 318 318 316 315 315 315 314 314 313 312 312 312 312 312 311 312 312
316 314 312 310 308 304 302 302 303 307 310 310 307 306 306 305 305 306 306 307 312 318 319 317 317 317 316 316 315 314 314 313 312 312 312 311 311 310 310 310 309 310 310
318 313 312 310 307 303 302 303 303 306 308 307 305 305 303 303 302 303 303 303 303 306 314 317 317 316 315 315 314 314 313 311 312 311 311 310 309 309 308 309 309 309 309
318 315 312 310 306 304 302 305 302 306 305 305 303 301 300 300 301 302 300 300 302 301 302 313 314 314 313 314 314 315 312 311 311 310 310 309 308 308 308 308 308 308 308
318 316 312 308 306 304 302 303 302 302 305 305 304 299 298 298 298 298 298 300 298 299 299 299 299 305 312 312 313 314 313 312 310 310 308 307 307 306 306 307 307 307 307
318 316 312 308 307 304 303 304 302 302 299 301 297 294 294 294 295 296 296 296 297 297 297 297 296 296 303 310 312 312 312 311 310 307 307 306 306 305 305 305 305 305 305
318 316 312 309 307 304 303 303 302 301 297 302 299 293 290 292 293 294 294 297 295 296 297 296 294 294 294 297 306 311 311 308 307 306 305 305 304 304 304 304 304 304 304
318 316 313 311 307 305 304 304 303 303 300 301 301 293 288 289 290 291 291 293 294 294 295 294 293 293 293 293 295 300 304 305 305 305 304 304 303 303 303 303 303 303 303
317 317 314 312 308 306 305 305 304 304 303 300 300 295 293 292 289 287 290 290 292 293 293 293 292 291 291 290 296 299 300 302 303 303 303 303 302 302 301 301 301 301 301
318 317 314 311 309 307 307 306 305 305 304 302 300 292 291 291 292 290 287 287 288 290 293 292 290 289 289 290 289 295 298 299 301 301 301 301 301 300 300 300 300 300 299
316 316 313 311 310 307 307 307 306 305 304 304 301 294 293 291 290 290 288 288 286 285 288 290 289 288 288 288 293 297 297 297 298 298 299 299 299 298 299 299 299 299 298
315 314 311 311 309 308 307 308 306 305 304 303 301 299 297 294 294 293 292 289 286 284 285 289 289 289 289 288 291 295 296 295 295 295 296 296 296 295 296 296 296 296 296
316 314 311 311 309 308 307 307 306 306 304 303 302 301 298 296 295 296 293 290 285 284 285 285 290 289 288 288 292 294 291 294 293 293 293 293 293 293 293 293 294 294 294
316 313 312 310 308 307 306 306 306 305 303 303 302 300 298 296 296 296 296 293 288 283 283 284 286 290 289 291 292 288 287 293 292 291 291 291 291 291 291 291 291 291 292
314 312 311 310 308 306 305 305 305 304 302 301 300 297 296 295 295 296 295 294 292 289 284 286 286 289 289 290 292 287 286 291 290 290 290 289 289 289 289 289 289 289 290
312 310 310 308 306 305 305 304 304 302 300 299 299 299 296 295 294 295 295 295 292 291 287 285 287 289 288 288 288 285 288 285 285 289 288 288 287 287 287 287 287 287 287
311 309 309 307 305 304 303 303 300 301 300 298 297 298 296 296 295 295 294 292 292 291 288 284 285 286 286 287 284 284 285 286 284 288 287 286 286 285 285 285 285 285 285
307 307 305 304 303 302 302 300 299 299 298 297 295 295 293 293 293 294 294 293 293 293 289 286 283 286 285 284 283 283 283 283 284 287 287 286 286 285 284 284 284 284 284
305 304 303 301 300 300 299 299 297 296 296 296 296 296 295 295 294 294 294 292 293 290 289 286 285 284 284 283 283 280 278 281 281 284 285 285 285 285 284 284 283 283 283
302 299 297 297 297 297 297 297 296 296 295 294 296 297 295 297 295 295 294 292 291 290 288 286 284 282 282 281 280 281 279 279 279 281 281 281 281 280 281 283 283 282 282
292 295 292 294 294 296 293 294 296 292 293 292 290 291 293 295 294 292 292 291 291 290 287 286 284 282 282 282 283 280 278 276 275 279 278 278 280 278 278 278 282 282 281
294 292 293 293 293 294 293 293 292 292 290 288 288 288 288 289 291 290 290 290 289 289 287 288 285 284 283 283 283 281 279 278 276 274 278 275 275 274 275 280 283 282 282
290 291 291 292 291 292 292 292 290 292 291 290 290 290 290 289 290 289 288 287 287 286 286 286 287 286 286 285 284 283 281 277 275 274 275 272 269 272 272 275 283 283 282
288 288 289 289 289 289 291 290 291 290 288 288 289 290 290 289 289 290 287 285 285 284 288 289 288 287 287 287 284 281 277 277 274 273 271 274 270 269 270 271 275 283 283
287 288 286 287 288 287 290 290 290 289 287 286 287 288 288 288 288 287 286 285 283 282 283 283 284 285 286 285 285 284 281 279 274 272 274 274 270 273 272 272 270 273 276
Wind_Speed
6 4 4 4 4 4 5 5 5 5 7 8 6 9 7 7 6 4 4 12 13 15 15 15 14 15 15 15 15 15 15 16 17 17 17 16 17 17 17 17 17 18 18
8 6 5 4 4 4 4 5 5 6 7 8 7 7 7 6 6 6 4 5 12 13 14 14 15 15 16 16 13 15 14 15 16 16 16 15 15 16 16 16 16 17 17
12 8 7 6 4 4 6 5 4 5 8 7 9 7 7 6 5 6 5 4 6 12 12 13 14 14 15 14 15 13 15 13 14 15 15 15 15 14 15 15 15 16 15
15 11 8 7 6 5 5 5 5 5 7 7 7 5 5 5 6 6 5 4 4 4 9 12 14 14 13 14 13 13 13 12 13 13 15 13 13 13 12 14 14 15 16
17 13 10 8 9 7 6 7 4 9 8 7 7 5 4 4 5 5 5 5 6 5 3 10 12 12 12 12 12 12 11 12 13 13 12 12 12 12 13 13 14 15 16
16 15 10 9 9 8 6 5 6 5 9 10 9 6 4 4 3 4 5 4 5 5 5 6 4 3 10 11 12 12 12 12 11 12 10 11 11 11 12 13 14 16 16
17 16 12 12 12 12 12 11 7 13 4 9 9 5 5 5 4 2 3 4 4 4 5 5 3 3 3 10 11 11 12 11 12 10 11 11 11 11 11 13 14 15 15
18 16 15 16 15 11 12 12 12 8 4 10 7 4 4 2 2 0 1 4 5 3 4 5 5 5 4 3 4 12 12 11 10 9 10 10 10 10 11 12 13 13 14
21 20 18 15 16 14 13 15 15 16 11 9 16 7 5 5 5 1 2 3 5 4 4 5 4 5 4 4 7 8 8 9 9 9 10 10 10 10 9 11 12 13 13
20 20 18 17 17 13 16 16 13 13 12 15 11 2 3 7 5 3 2 2 4 5 6 5 4 4 4 3 7 8 8 6 9 9 9 10 10 9 9 10 11 12 12
20 21 20 19 18 14 16 19 18 17 13 14 12 4 3 3 3 5 6 4 1 2 5 6 6 4 4 3 4 5 6 6 8 10 9 8 9 9 9 10 10 11 11
15 20 20 20 19 17 19 18 18 19 15 14 12 6 6 5 5 5 4 9 7 2 2 4 5 5 4 4 7 11 9 7 8 7 9 9 8 8 9 9 10 10 10
14 20 22 19 17 19 18 18 17 18 17 16 17 11 7 4 4 3 6 8 5 2 3 1 2 4 5 4 5 9 11 10 10 8 8 9 9 7 8 10 10 9 9
16 18 19 18 18 18 17 17 14 14 15 14 17 13 7 5 4 4 7 10 6 3 2 5 3 4 4 4 8 13 6 10 10 9 9 10 9 8 8 10 10 8 11
13 16 18 17 16 18 18 18 14 16 15 15 13 12 9 5 5 5 8 12 11 7 7 5 4 7 5 7 9 6 4 13 11 10 9 10 10 9 9 9 9 9 11
14 15 18 16 16 17 17 18 14 14 13 10 8 12 9 5 7 6 9 9 3 6 7 3 2 6 8 6 11 7 6 12 12 10 10 10 10 10 8 9 8 10 11
14 15 17 16 16 16 16 14 13 12 14 12 12 13 11 10 7 7 6 7 5 4 7 3 3 6 9 9 8 6 6 5 5 12 12 10 10 10 8 8 8 10 11
15 16 16 16 15 14 15 16 14 14 15 15 13 12 14 11 12 10 8 9 9 6 5 7 3 4 5 9 9 8 7 6 4 12 13 13 12 11 9 7 8 10 9
15 14 15 15 15 15 16 13 13 14 14 14 15 16 15 16 13 11 11 10 9 7 7 7 6 4 3 8 8 6 6 6 5 14 14 15 13 11 9 9 8 8 7
16 15 14 14 13 13 13 14 14 13 13 13 15 16 16 17 16 14 13 13 11 10 9 9 6 8 7 9 9 9 6 5 6 7 10 9 12 11 9 9 9 7 5
13 13 14 11 11 11 10 13 13 13 13 11 11 11 12 14 19 18 12 11 13 12 10 9 7 6 8 11 13 8 7 7 1 3 5 4 4 3 3 6 7 6 3
11 13 12 13 13 8 16 17 15 12 11 13 11 8 9 16 16 17 16 19 18 15 12 8 6 10 12 11 10 10 8 7 6 3 4 3 4 4 3 2 6 5 4
11 10 11 12 11 8 18 17 16 10 10 10 10 10 8 8 13 11 13 17 13 15 12 11 12 11 11 15 14 14 11 10 3 3 5 4 1 4 3 4 8 7 5
9 9 9 9 9 7 18 17 15 9 8 9 10 12 12 10 11 12 11 10 7 6 6 6 11 15 13 13 14 8 10 7 4 2 2 3 2 3 2 1 9 9 6
7 7 7 10 9 8 15 16 15 9 7 7 7 8 9 9 14 20 14 11 9 5 6 8 11 16 17 21 16 12 10 10 3 3 3 4 3 3 2 2 3 11 9
10 8 9 7 10 8 14 17 12 7 8 7 7 7 15 13 19 20 12 12 11 8 10 9 9 11 17 18 25 14 13 13 5 3 6 5 4 4 3 2 3 2 0
Wind_Direction
140 128 128 134 135 130 129 130 123 115 113 111 106 111 103 95 91 88 101 117 127 125 120 120 117 113 108 102 101 97 95 94 90 84 80 79 76 72 68 66 64 62 57
146 147 140 135 147 143 131 140 139 132 125 121 106 107 105 98 96 94 87 101 125 126 122 123 122 122 110 104 104 97 95 93 93 87 88 80 72 71 70 66 64 63 60
152 156 154 154 159 135 124 111 106 117 122 119 112 107 111 102 97 90 87 81 89 106 123 127 128 120 118 112 112 108 98 98 92 91 82 78 75 69 68 69 64 61 57
158 157 164 168 151 141 139 133 132 111 120 126 121 118 110 105 99 90 85 84 81 79 94 125 127 132 122 124 118 111 107 100 89 85 87 87 83 81 76 71 66 62 54
165 164 170 168 157 158 159 155 139 142 133 124 117 102 82 93 108 104 95 89 92 89 87 118 128 130 126 125 117 114 113 105 101 96 92 90 83 80 75 73 69 62 54
174 169 166 161 161 162 157 147 141 120 140 137 119 89 69 69 78 96 109 94 90 93 87 75 69 97 132 132 126 125 122 110 110 102 99 90 81 80 77 72 67 64 55
177 176 164 163 171 175 174 161 144 140 118 131 111 75 41 40 61 92 108 112 108 101 99 99 80 61 54 109 116 123 117 120 101 107 93 90 85 79 73 72 69 64 58
178 180 175 174 176 171 169 164 156 144 104 170 142 112 136 23 28 288 106 148 142 122 112 99 95 85 56 43 120 121 125 128 117 110 105 101 93 80 75 71 69 65 58
184 183 180 175 174 173 174 173 168 170 158 189 171 136 147 189 126 150 215 184 162 142 127 117 103 99 84 51 42 60 89 117 125 124 117 106 95 88 80 76 67 62 56
186 186 181 176 176 176 178 180 176 176 163 176 185 107 102 138 162 147 187 181 182 170 154 151 132 114 108 105 113 105 84 89 129 126 117 113 108 94 83 74 70 65 59
190 187 181 178 179 182 182 178 179 183 180 174 186 131 113 91 111 140 163 168 134 199 170 150 151 135 135 138 117 136 108 95 127 130 124 111 100 95 86 79 72 63 58
187 188 184 184 181 181 182 184 183 185 181 183 186 161 166 162 166 147 127 163 155 87 89 141 157 153 151 150 157 153 141 124 124 127 120 110 96 90 86 81 73 67 66
188 190 185 186 186 183 183 181 183 186 184 186 185 181 166 161 130 126 123 146 137 110 143 102 190 166 165 160 170 157 152 143 135 134 123 110 103 93 93 82 75 72 66
189 180 186 186 183 183 177 180 182 186 186 190 186 184 172 151 130 135 139 144 115 131 170 142 149 189 180 165 163 166 154 149 143 140 131 118 111 104 90 87 82 75 68
179 178 186 185 181 177 177 175 180 184 185 189 186 172 162 145 137 139 148 162 143 157 187 179 152 190 176 173 168 131 135 159 153 145 139 125 120 110 98 89 86 81 74
175 173 180 181 180 179 179 180 183 182 178 179 165 152 152 137 136 150 159 171 134 137 160 150 130 149 174 176 159 139 145 157 155 151 142 134 120 108 103 100 95 85 76
169 170 177 177 175 179 179 181 175 165 166 160 159 159 150 134 167 147 156 166 124 108 129 74 72 150 160 171 151 142 150 125 156 157 145 132 116 108 104 99 92 84 76
173 170 176 175 173 173 172 171 159 165 167 166 168 171 174 167 172 153 162 134 124 102 118 135 125 164 158 170 149 147 144 145 153 165 155 139 130 121 117 104 89 79 74
169 163 164 164 166 167 166 163 163 163 167 166 166 168 163 157 157 151 149 142 161 154 142 149 149 145 146 153 149 142 150 133 169 167 161 147 141 135 128 115 97 84 78
159 160 161 159 159 160 157 158 153 161 162 168 171 172 166 165 159 165 166 172 168 154 156 150 140 162 169 158 161 155 151 165 172 172 164 149 146 148 137 125 110 93 83
160 144 135 137 140 148 152 156 157 163 163 164 173 173 177 181 170 170 169 168 169 167 152 156 150 148 161 163 179 169 162 156 159 172 160 158 148 125 142 124 110 113 107
130 131 132 141 146 157 156 156 156 159 164 165 168 169 167 164 163 162 163 171 174 174 165 157 158 169 175 175 170 168 152 160 190 187 136 157 142 153 166 147 151 152 128
127 133 132 137 147 146 151 152 148 153 160 165 168 162 156 167 162 161 157 163 173 176 170 165 163 180 165 186 164 168 175 180 161 166 140 164 143 179 206 171 179 177 168
114 128 126 129 127 137 153 156 149 147 161 169 172 169 166 165 166 153 153 157 165 148 158 160 175 178 173 172 175 167 153 115 79 80 108 145 203 194 204 177 208 195 193
113 113 123 120 128 132 153 148 145 146 146 155 156 165 166 162 159 153 150 153 155 143 148 150 149 130 142 161 149 130 152 155 125 195 196 130 188 135 192 201 211 215 208
138 128 108 113 124 137 164 160 149 149 146 146 149 166 165 165 162 155 153 152 154 151 146 143 127 133 156 163 164 173 159 171 142 148 207 138 155 154 170 192 189 206 299